1514311201.01,63874,9.19,72692.5,-4.49,-35.53,-35.23,0,*50
1514311202.25,63875,9.19,72696.3,-4.49,-35.41,-35.23,0,*52
1514311203.49,63876,9.19,72690.5,-4.49,-35.41,-35.07,0,*57
1514311204.72,63877,9.19,72690.5,-4.49,-34.83,-34.59,0,*53
1514311205.95,63878,9.19,72692.0,-4.49,-34.83,-34.59,0,*5C
1514311207.18,63879,9.19,72690.3,-4.49,-35.07,-34.77,0,*5C
1514311208.41,63880,9.19,72688.8,-4.49,-35.23,-35.01,0,*5C
1514311209.64,63881,9.19,72690.5,-4.49,-34.89,-34.65,0,*5F
1514311210.87,63882,9.19,72692.0,-4.49,-34.83,-34.59,0,*59
1514311212.13,63883,9.19,72688.5,-4.49,-34.65,-34.31,0,*5E
1514311213.34,63884,9.19,72694.3,-4.47,-34.41,-34.25,0,*54
1514311214.6,63885,9.19,72692.0,-4.49,-35.07,-34.65,0,*5C
1514311215.83,63886,9.19,72684.5,-4.49,-34.83,-34.47,0,*52
1514311217.06,63887,9.19,72694.0,-4.47,-34.41,-34.07,0,*57
1514311218.31,63888,9.19,72688.8,-4.47,-34.01,-33.67,0,*5D
1514311219.59,63889,9.19,72694.0,-4.47,-34.19,-33.89,0,*55
1514311220.85,63890,9.19,72690.0,-4.47,-33.89,-33.61,0,*55
1514311222.09,63891,9.19,72682.5,-4.45,-34.01,-33.67,0,*57
1514311223.3,63892,9.19,72688.3,-4.45,-34.71,-34.59,0,*59
1514311224.56,63893,9.19,72688.8,-4.43,-34.95,-34.71,0,*5E
1514311225.81,63894,9.19,72692.8,-4.43,-34.47,-34.19,0,*58
1514311227.04,63895,9.19,72688.5,-4.45,-35.01,-34.83,0,*5F
1514311228.32,63896,9.19,72684.8,-4.43,-35.07,-34.95,0,*5B
1514311229.58,63897,9.19,72696.0,-4.43,-34.77,-34.53,0,*56
1514311230.81,63898,9.19,72694.3,-4.45,-34.19,-33.83,0,*5D
1514311232.06,63899,9.19,72686.3,-4.43,-34.35,-34.13,0,*5A
1514311233.32,63900,9.19,72692.0,-4.43,-35.07,-34.89,0,*58
1514311234.57,63901,9.19,72688.3,-4.43,-35.47,-35.07,0,*5A
1514311235.77,63902,9.19,72694.5,-4.45,-34.71,-34.41,0,*58
1514311237.0,63903,9.19,72688.8,-4.45,-35.17,-34.95,0,*51
1514311238.2,63904,9.19,72692.0,-4.45,-35.47,-35.13,0,*5C
1514311239.47,63905,9.19,72692.3,-4.43,-35.41,-35.07,0,*58
1514311240.72,63906,9.19,72684.5,-4.43,-35.47,-35.23,0,*5B
1514311241.93,63907,9.19,72684.5,-4.45,-35.13,-34.77,0,*5D
1514311243.19,63908,9.19,72684.3,-4.43,-34.77,-34.65,0,*54
1514311244.44,63909,9.19,72688.8,-4.43,-34.71,-34.35,0,*56
1514311245.72,63910,9.19,72678.5,-4.43,-34.31,-34.01,0,*5D
1514311246.95,63911,9.19,72674.8,-4.45,-33.83,-33.49,0,*5F
1514311248.21,63912,9.19,72676.5,-4.43,-33.61,-33.37,0,*5F
1514311249.43,63913,9.19,72688.3,-4.45,-34.19,-33.83,0,*5F
1514311250.66,63914,9.19,72688.0,-4.43,-34.13,-33.83,0,*54
1514311251.94,63915,9.19,72690.8,-4.43,-34.35,-34.01,0,*5C
1514311253.14,63916,9.19,72690.3,-4.41,-34.41,-33.95,0,*54
1514311254.39,63917,9.19,72690.8,-4.39,-33.89,-33.55,0,*55
1514311255.64,63918,9.19,72690.3,-4.41,-33.77,-33.49,0,*59
1514311256.91,63919,9.19,72692.8,-4.39,-33.77,-33.61,0,*5D
1514311258.14,63920,9.19,72694.8,-4.41,-34.59,-34.31,0,*51
1514311259.39,63921,9.19,72690.8,-4.39,-33.89,-33.55,0,*50
1514311260.64,63922,9.19,72694.5,-4.39,-34.07,-33.73,0,*56
1514311261.84,63923,9.19,72696.0,-4.37,-34.25,-33.83,0,*56
1514311263.09,63924,9.19,72698.5,-4.37,-33.89,-33.49,0,*56
1514311264.29,63925,9.19,72694.5,-4.37,-34.07,-33.67,0,*5A
1514311265.53,63926,9.19,72694.5,-4.37,-34.01,-33.67,0,*5F
1514311266.82,63927,9.19,72696.8,-4.35,-34.35,-34.01,0,*5C
1514311268.11,63928,9.19,72692.3,-4.35,-34.19,-33.73,0,*5F
1514311269.36,63929,9.19,72696.3,-4.35,-33.89,-33.55,0,*54
1514311270.65,63930,9.19,72694.5,-4.35,-34.01,-33.73,0,*5F
1514311271.89,63931,9.19,72696.0,-4.33,-34.31,-33.95,0,*53
1514311273.16,63932,9.19,72688.3,-4.33,-34.31,-33.77,0,*5C
1514311274.41,63933,9.19,72684.5,-4.29,-33.67,-33.43,0,*55
1514311275.65,63934,9.19,72684.0,-4.33,-33.67,-33.27,0,*5B
1514311276.91,63935,9.19,72684.3,-4.33,-33.61,-33.27,0,*5C
1514311278.19,63936,9.19,72680.0,-4.29,-33.49,-33.27,0,*5E
1514311279.46,63937,9.19,72690.8,-4.29,-33.61,-33.27,0,*55
1514311280.72,63938,9.19,72688.0,-4.29,-34.01,-33.61,0,*59
1514311282.01,63939,9.19,72688.5,-4.27,-33.77,-33.31,0,*55
1514311283.31,63940,9.19,72686.8,-4.27,-33.77,-33.43,0,*5E
1514311284.55,63941,9.19,72686.0,-4.25,-33.77,-33.55,0,*5A
1514311285.83,63942,9.19,72682.3,-4.27,-33.61,-33.31,0,*5E
1514311287.05,63943,9.19,72682.5,-4.25,-33.95,-33.55,0,*54
1514311288.31,63944,9.19,72684.0,-4.25,-33.89,-33.43,0,*59
1514311289.55,63945,9.19,72682.3,-4.21,-33.55,-33.27,0,*5F
1514311290.84,63946,9.19,72684.0,-4.23,-33.89,-33.49,0,*57
1514311292.09,63947,9.19,72682.0,-4.21,-34.01,-33.67,0,*5F
1514311293.33,63948,9.19,72688.5,-4.21,-34.47,-34.19,0,*5C
1514311294.56,63949,9.25,72694.5,-4.23,-34.41,-34.07,0,*56
1514311295.83,63950,9.19,72684.0,-4.21,-34.19,-33.73,0,*55
1514311297.08,63951,9.19,72686.3,-4.21,-34.01,-33.67,0,*58
1514311298.29,63952,9.19,72688.8,-4.21,-34.47,-34.25,0,*58
1514311299.54,63953,9.19,72690.8,-4.21,-34.83,-34.47,0,*55
1514311300.78,63954,9.19,72682.0,-4.21,-34.77,-34.35,0,*5C
1514311302.03,63955,9.19,72682.5,-4.21,-34.25,-34.01,0,*5D
1514311303.29,63956,9.19,72684.3,-4.23,-34.59,-34.35,0,*50
1514311304.56,63957,9.19,72682.5,-4.21,-34.95,-34.65,0,*56
1514311305.8,63958,9.19,72686.3,-4.23,-35.13,-34.77,0,*57
1514311307.06,63959,9.19,72686.0,-4.23,-35.35,-35.13,0,*51
1514311308.29,63960,9.19,72682.0,-4.21,-35.17,-34.83,0,*51
1514311309.53,63961,9.19,72686.8,-4.23,-35.13,-34.77,0,*5D
1514311310.82,63962,9.19,72680.0,-4.23,-35.35,-34.95,0,*56
1514311312.08,63963,9.19,72684.8,-4.25,-34.53,-34.31,0,*5E
1514311313.32,63964,9.19,72682.8,-4.25,-34.89,-34.53,0,*5A
1514311314.59,63965,9.19,72686.0,-4.25,-34.83,-34.53,0,*51
1514311315.8,63966,9.19,72680.5,-4.25,-35.01,-34.71,0,*59
1514311317.08,63967,9.19,72686.5,-4.25,-34.83,-34.65,0,*56
1514311318.31,63968,9.19,72684.8,-4.25,-34.89,-34.53,0,*56
1514311319.52,63969,9.19,72688.8,-4.25,-35.17,-34.89,0,*56
1514311320.78,63970,9.19,72688.5,-4.25,-35.07,-34.83,0,*55
1514311322.07,63971,9.19,72680.8,-4.27,-35.07,-34.83,0,*56
1514311323.33,63972,9.19,72686.5,-4.25,-35.35,-35.07,0,*5B
1514311324.59,63973,9.19,72688.0,-4.27,-35.53,-35.17,0,*59
1514311325.85,63974,9.19,72686.8,-4.27,-35.71,-35.23,0,*59
1514311327.11,63975,9.19,72690.0,-4.27,-35.83,-35.59,0,*58
1514311328.35,63976,9.19,72692.0,-4.27,-35.77,-35.59,0,*50
1514311329.59,63977,9.19,72690.5,-4.33,-35.89,-35.65,0,*5A
1514311330.83,63978,9.19,72690.0,-4.33,-35.89,-35.65,0,*55
1514311332.05,63979,9.19,72692.3,-4.33,-35.77,-35.29,0,*5D
1514311333.29,63980,9.19,72686.5,-4.33,-35.07,-34.71,0,*50
1514311334.53,63981,9.19,72686.3,-4.33,-34.89,-34.53,0,*56
1514311335.77,63982,9.19,72686.3,-4.33,-34.71,-34.35,0,*52
1514311337.01,63983,9.19,72680.5,-4.33,-34.95,-34.59,0,*53
1514311338.25,63984,9.19,72678.0,-4.33,-35.23,-34.77,0,*54
1514311339.49,63985,9.19,72688.0,-4.33,-35.41,-35.13,0,*52
1514311340.74,63986,9.19,72686.5,-4.33,-36.25,-36.01,0,*50
1514311342.0,63987,9.19,72694.3,-4.35,-36.43,-36.13,0,*54
1514311343.2,63988,9.19,72690.5,-4.37,-36.31,-36.07,0,*59
1514311344.43,63989,9.19,72684.3,-4.37,-36.43,-36.13,0,*58
1514311345.65,63990,9.25,72690.3,-4.37,-36.43,-36.13,0,*50
1514311346.9,63991,9.19,72684.3,-4.39,-36.49,-36.19,0,*5F
1514311348.13,63992,9.25,72696.3,-4.41,-36.49,-36.31,0,*59
1514311349.36,63993,9.19,72696.3,-4.41,-36.31,-36.13,0,*57
1514311350.58,63994,9.19,72696.8,-4.41,-36.31,-36.01,0,*53
1514311351.79,63995,9.25,72696.5,-4.41,-36.19,-35.89,0,*5B
1514311353.02,63996,9.19,72694.0,-4.43,-36.01,-35.77,0,*52
1514311354.25,63997,9.19,72676.5,-4.45,-35.83,-35.47,0,*5F
1514311355.5,63998,9.19,72684.0,-4.45,-35.65,-35.41,0,*5E
1514311356.73,63999,9.19,72682.5,-4.45,-35.53,-35.29,0,*54
1514311357.98,64000,9.19,72686.3,-4.45,-35.83,-35.35,0,*5A
1514311359.23,64001,9.19,72686.5,-4.47,-35.35,-35.13,0,*50
1514311360.44,64002,9.19,72690.0,-4.45,-35.47,-35.13,0,*54
1514311361.67,64003,9.19,72678.0,-4.45,-34.77,-34.35,0,*52
1514311362.92,64004,9.19,72670.8,-4.47,-34.71,-34.35,0,*51
1514311364.15,64005,9.19,72676.5,-4.45,-34.59,-34.35,0,*58
1514311365.41,64006,9.19,72684.5,-4.45,-34.53,-34.01,0,*56
1514311366.66,64007,9.19,72682.8,-4.45,-34.53,-34.35,0,*50
1514311367.9,64008,9.19,72686.3,-4.43,-34.77,-34.47,0,*5A
1514311369.15,64009,9.19,72680.8,-4.43,-34.77,-34.35,0,*5E
1514311370.42,64010,9.19,72684.3,-4.43,-34.53,-34.19,0,*5E
1514311371.63,64011,9.25,72686.5,-4.45,-35.01,-34.71,0,*51
1514311372.89,64012,9.19,72680.8,-4.45,-34.95,-34.53,0,*5E
1514311374.13,64013,9.19,72682.0,-4.45,-34.53,-34.07,0,*54
1514311375.38,64014,9.19,72680.3,-4.43,-34.19,-33.83,0,*50
1514311376.62,64015,9.19,72682.8,-4.43,-34.71,-34.47,0,*50
1514311377.87,64016,9.19,72674.3,-4.43,-35.07,-34.71,0,*56
1514311379.13,64017,9.19,72674.8,-4.43,-35.29,-34.95,0,*51
1514311380.37,64018,9.19,72672.3,-4.43,-35.41,-35.13,0,*5F
1514311381.62,64019,9.19,72678.5,-4.43,-35.47,-35.07,0,*5D
1514311382.87,64020,9.19,72676.3,-4.43,-35.41,-35.13,0,*54
1514311384.12,64021,9.19,72674.3,-4.45,-35.65,-35.35,0,*51
1514311385.35,64022,9.19,72674.3,-4.45,-35.65,-35.47,0,*57
1514311386.55,64023,9.19,72676.5,-4.45,-35.47,-35.01,0,*54
1514311387.78,64024,9.19,72678.0,-4.45,-34.71,-34.35,0,*51
1514311389.02,64025,9.19,72674.8,-4.45,-34.07,-33.73,0,*54
1514311390.26,64026,9.19,72676.8,-4.45,-34.47,-34.01,0,*51
1514311391.5,64027,9.19,72672.0,-4.43,-33.95,-33.61,0,*5F
1514311392.76,64028,9.19,72678.0,-4.43,-34.35,-34.13,0,*5F
1514311394.01,64029,9.19,72682.5,-4.43,-34.71,-34.35,0,*5A
1514311395.3,64030,9.25,72686.5,-4.43,-34.95,-34.65,0,*5D
1514311396.52,64031,9.19,72686.5,-4.43,-35.13,-34.77,0,*50
1514311397.77,64032,9.19,72684.8,-4.43,-35.23,-34.89,0,*51
1514311399.02,64033,9.19,72684.3,-4.43,-35.07,-34.89,0,*56
1514311400.26,64034,9.19,72684.3,-4.45,-35.29,-34.95,0,*56
1514311401.47,64035,9.19,72684.8,-4.45,-35.47,-35.01,0,*53
1514311402.72,64036,9.19,72680.5,-4.45,-35.35,-34.95,0,*59
1514311403.93,64037,9.19,72682.0,-4.45,-35.29,-35.01,0,*59
1514311405.18,64038,9.19,72686.3,-4.43,-35.29,-34.95,0,*5C
1514311406.39,64039,9.19,72688.0,-4.45,-35.47,-35.13,0,*5C
1514311407.61,64040,9.19,72688.8,-4.45,-35.53,-35.17,0,*53
1514311408.85,64041,9.19,72686.3,-4.47,-35.53,-35.13,0,*54
1514311410.09,64042,9.25,72692.8,-4.47,-35.53,-35.17,0,*53
1514311411.34,64043,9.19,72688.0,-4.47,-35.35,-35.13,0,*56
1514311412.61,64044,9.25,72692.0,-4.47,-35.35,-34.95,0,*5E
1514311413.82,64045,9.19,72690.3,-4.45,-35.29,-35.01,0,*5C
1514311415.07,64046,9.19,72686.3,-4.47,-35.35,-35.01,0,*50
1514311416.32,64047,9.25,72690.0,-4.49,-35.23,-35.07,0,*5E
1514311417.54,64048,9.19,72688.0,-4.47,-35.17,-35.01,0,*5E
1514311418.79,64049,9.19,72688.3,-4.49,-35.41,-35.07,0,*54
1514311420.01,64050,9.19,72686.3,-4.49,-35.59,-35.07,0,*55
1514311421.23,64051,9.19,72680.0,-4.49,-35.59,-35.23,0,*52
1514311422.47,64052,9.19,72682.3,-4.49,-35.41,-35.07,0,*5E
1514311423.71,64053,9.19,72682.8,-4.49,-35.23,-35.01,0,*5D
1514311424.96,64054,9.19,72684.3,-4.55,-34.71,-34.31,0,*53
1514311426.21,64055,9.19,72680.8,-4.51,-33.73,-33.55,0,*56
1514311427.47,64056,9.19,72672.5,-4.51,-33.67,-33.31,0,*52
1514311428.7,64057,9.19,72680.5,-4.49,-34.13,-33.89,0,*5D
1514311429.97,64058,9.19,72682.5,-4.47,-34.83,-34.35,0,*55
1514311431.2,64059,9.19,72680.8,-4.49,-34.65,-34.25,0,*53
1514311432.45,64060,9.19,72682.0,-4.47,-34.77,-34.53,0,*55
1514311433.67,64061,9.19,72676.5,-4.49,-34.83,-34.41,0,*52
1514311434.88,64062,9.25,72680.0,-4.49,-34.59,-34.07,0,*54
1514311436.08,64063,9.19,72674.3,-4.49,-34.77,-34.25,0,*59
1514311437.29,64064,9.19,72680.8,-4.49,-34.59,-34.13,0,*57
1514311438.52,64065,9.19,72676.3,-4.49,-34.83,-34.59,0,*5F
1514311439.75,64066,9.19,72678.0,-4.49,-35.01,-34.65,0,*58
1514311441.01,64067,9.19,72678.5,-4.47,-34.77,-34.53,0,*52
1514311442.24,64068,9.25,72682.8,-4.49,-34.77,-34.31,0,*57
1514311443.49,64069,9.25,72678.8,-4.47,-33.83,-33.43,0,*56
1514311444.7,64070,9.19,72672.0,-4.49,-34.13,-33.67,0,*58
1514311445.95,64071,9.19,72678.5,-4.47,-34.25,-33.89,0,*52
1514311447.22,64072,9.19,72678.0,-4.47,-34.35,-33.89,0,*50
1514311448.5,64073,9.19,72674.0,-4.47,-34.01,-33.61,0,*50
1514311449.76,64074,9.25,72674.0,-4.47,-33.89,-33.61,0,*50
1514311451.02,64075,9.19,72678.5,-4.43,-34.31,-33.83,0,*5D
1514311452.25,64076,9.19,72674.5,-4.45,-34.41,-34.01,0,*52
1514311453.5,64077,9.19,72674.8,-4.45,-33.31,-33.09,0,*5C
1514311454.75,64078,9.19,72672.3,-4.43,-33.27,-33.21,0,*58
1514311456.03,64079,9.25,72678.0,-4.43,-34.01,-33.77,0,*59
1514311457.31,64080,9.19,72672.8,-4.43,-34.65,-34.35,0,*5C
1514311458.56,64081,9.19,72674.5,-4.43,-34.71,-34.35,0,*58
1514311459.82,64082,9.19,72672.8,-4.43,-34.31,-33.67,0,*5F
1514311461.07,64083,9.25,72672.5,-4.43,-33.43,-33.21,0,*5E
1514311462.3,64084,9.19,72672.3,-4.43,-33.37,-33.03,0,*5A
1514311463.55,64085,9.19,72672.8,-4.39,-33.15,-32.79,0,*5A
1514311464.81,64086,9.19,72678.3,-4.37,-33.73,-33.27,0,*5D
1514311466.07,64087,9.19,72676.5,-4.37,-33.09,-32.63,0,*50
1514311467.29,64088,9.19,72678.8,-4.37,-33.49,-33.15,0,*5B
1514311468.56,64089,9.19,72672.8,-4.35,-34.19,-33.67,0,*5F
1514311469.85,64090,9.19,72672.5,-4.35,-33.73,-33.49,0,*50
1514311471.12,64091,9.19,72678.0,-4.35,-34.07,-33.89,0,*59
1514311472.41,64092,9.25,72678.0,-4.35,-34.19,-33.73,0,*50
1514311473.68,64093,9.25,72678.5,-4.35,-33.67,-33.43,0,*5C
1514311474.91,64094,9.19,72678.3,-4.35,-34.41,-34.07,0,*5F
1514311476.2,64095,9.19,72682.0,-4.35,-34.65,-34.35,0,*59
1514311477.43,64096,9.19,72676.3,-4.35,-33.83,-33.55,0,*54
1514311478.7,64097,9.19,72680.0,-4.35,-34.01,-33.67,0,*59
1514311479.96,64098,9.19,72680.3,-4.33,-34.01,-33.61,0,*56
1514311481.23,64099,9.19,72678.0,-4.33,-33.77,-33.43,0,*51
1514311482.5,64100,9.19,72680.8,-4.33,-34.35,-34.01,0,*50
1514311483.77,64101,9.19,72680.5,-4.33,-34.01,-33.77,0,*50
1514311485.02,64102,9.19,72682.5,-4.33,-34.47,-34.01,0,*57
1514311486.23,64103,9.25,72684.8,-4.33,-34.89,-34.59,0,*59
1514311487.5,64104,9.19,72680.8,-4.35,-34.95,-34.59,0,*55
1514311488.76,64105,9.19,72684.0,-4.35,-34.83,-34.59,0,*53
1514311489.99,64106,9.25,72682.8,-4.37,-34.77,-34.53,0,*53
1514311491.28,64107,9.19,72680.5,-4.35,-35.35,-34.95,0,*5D
1514311492.53,64108,9.19,72680.3,-4.37,-35.35,-34.95,0,*50
1514311493.79,64109,9.19,72680.5,-4.35,-35.13,-34.65,0,*58
1514311495.0,64110,9.19,72682.5,-4.37,-35.01,-34.77,0,*52
1514311496.22,64111,9.19,72672.5,-4.37,-34.59,-34.19,0,*57
1514311497.49,64112,9.19,72676.8,-4.35,-34.41,-34.01,0,*56
1514311498.69,64113,9.19,72680.8,-4.37,-34.41,-34.07,0,*53
1514311499.91,64114,9.25,72680.3,-4.37,-34.19,-33.83,0,*52
1514311501.18,64115,9.25,72684.5,-4.35,-33.83,-33.43,0,*59
1514311502.41,64116,9.19,72678.5,-4.37,-34.07,-33.73,0,*50
1514311503.66,64117,9.19,72676.0,-4.37,-34.35,-33.89,0,*55
1514311504.92,64118,9.19,72676.5,-4.35,-34.41,-34.19,0,*55
1514311506.18,64119,9.19,72668.3,-4.37,-34.95,-34.65,0,*54
1514311507.47,64120,9.19,72668.0,-4.35,-34.95,-34.65,0,*5C
1514311508.71,64121,9.25,72672.5,-4.37,-35.01,-34.65,0,*53
1514311509.94,64122,9.19,72670.8,-4.37,-34.35,-34.07,0,*52
1514311511.15,64123,9.19,72672.3,-4.37,-35.13,-34.83,0,*5A
1514311512.38,64124,9.19,72674.8,-4.37,-35.29,-34.83,0,*54
1514311513.6,64125,9.19,72676.8,-4.37,-35.29,-34.83,0,*55
1514311514.83,64126,9.19,72670.8,-4.39,-34.47,-33.95,0,*51
1514311516.08,64127,9.25,72678.3,-4.39,-33.95,-33.73,0,*50
1514311517.33,64128,9.19,72674.5,-4.39,-34.13,-33.89,0,*53
1514311518.58,64129,9.19,72676.5,-4.37,-34.19,-33.73,0,*53
1514311519.84,64130,9.19,72672.0,-4.35,-34.59,-34.19,0,*56
1514311521.09,64131,9.19,72676.8,-4.37,-34.35,-33.89,0,*51
1514311522.35,64132,9.19,72678.0,-4.37,-34.65,-34.35,0,*57
1514311523.6,64133,9.19,72674.5,-4.37,-34.83,-34.53,0,*5E
1514311524.85,64134,9.25,72676.8,-4.37,-34.35,-33.89,0,*54
1514311526.08,64135,9.25,72680.3,-4.37,-34.35,-34.07,0,*54
1514311527.3,64136,9.19,72670.5,-4.37,-33.89,-33.55,0,*57
1514311528.53,64137,9.19,72678.3,-4.37,-34.25,-34.01,0,*51
1514311529.75,64138,9.19,72674.8,-4.37,-34.59,-34.35,0,*52
1514311530.95,64139,9.19,72668.3,-4.37,-34.41,-34.07,0,*5B
1514311532.22,64140,9.25,72676.0,-4.35,-34.01,-33.67,0,*52
1514311533.44,64141,9.25,72674.0,-4.37,-34.53,-34.25,0,*57
1514311534.68,64142,9.19,72674.0,-4.35,-34.59,-34.25,0,*5C
1514311535.93,64143,9.19,72674.8,-4.37,-34.53,-34.19,0,*5A
1514311537.18,64144,9.19,72672.5,-4.37,-34.65,-34.35,0,*56
1514311538.43,64145,9.19,72672.3,-4.37,-34.53,-34.19,0,*5C
1514311539.66,64146,9.19,72676.0,-4.37,-34.77,-34.53,0,*57
1514311540.89,64147,9.25,72672.8,-4.37,-34.41,-34.01,0,*54
1514311542.09,64148,9.19,72672.3,-4.37,-34.59,-34.25,0,*54
1514311543.35,64149,9.19,72670.3,-4.37,-34.53,-34.01,0,*59
1514311544.54,64150,9.19,72674.3,-4.37,-34.41,-34.25,0,*54
1514311545.77,64151,9.19,72676.5,-4.37,-34.41,-34.01,0,*53
1514311546.99,64152,9.19,72674.0,-4.37,-33.89,-33.55,0,*55
1514311548.21,64153,9.19,72674.3,-4.37,-34.25,-33.89,0,*54
1514311549.43,64154,9.25,72672.3,-4.37,-34.25,-33.89,0,*53
1514311550.66,64155,9.19,72674.5,-4.37,-34.59,-34.35,0,*59
1514311551.89,64156,9.19,72672.0,-4.37,-34.59,-34.35,0,*5A
1514311553.12,64157,9.19,72670.0,-4.37,-34.07,-33.73,0,*55
1514311554.34,64158,9.19,72678.3,-4.37,-34.53,-34.25,0,*5F
1514311555.54,64159,9.19,72678.5,-4.37,-34.41,-34.07,0,*5D
1514311556.81,64160,9.19,72676.5,-4.35,-34.07,-33.73,0,*53
1514311558.03,64161,9.19,72680.5,-4.37,-34.77,-34.35,0,*52
1514311559.26,64162,9.19,72678.0,-4.37,-34.65,-34.25,0,*53
1514311560.51,64163,9.19,72678.0,-4.37,-34.35,-34.01,0,*51
1514311561.73,64164,9.25,72680.0,-4.37,-34.53,-34.25,0,*50
1514311562.99,64165,9.19,72678.3,-4.37,-34.35,-34.01,0,*57
1514311564.19,64166,9.19,72678.8,-4.37,-34.25,-33.83,0,*58
1514311565.41,64167,9.19,72678.5,-4.37,-34.25,-33.89,0,*53
1514311566.66,64168,9.19,72670.0,-4.37,-33.27,-32.97,0,*57
1514311567.92,64169,9.25,72682.5,-4.35,-33.15,-32.79,0,*55
1514311569.19,64170,9.19,72678.0,-4.33,-33.09,-32.75,0,*5A
1514311570.41,64171,9.25,72682.0,-4.33,-33.67,-33.37,0,*54
1514311571.65,64172,9.19,72676.8,-4.33,-34.13,-33.77,0,*57
1514311572.89,64173,9.19,72678.8,-4.33,-33.83,-33.61,0,*5F
1514311574.11,64174,9.19,72682.3,-4.33,-34.71,-34.47,0,*51
1514311575.33,64175,9.19,72682.0,-4.33,-34.77,-34.47,0,*56
1514311576.63,64176,9.19,72686.0,-4.35,-34.95,-34.65,0,*5F
1514311577.89,64177,9.25,72690.5,-4.35,-34.95,-34.59,0,*51
1514311579.09,64178,9.25,72690.3,-4.37,-35.13,-34.77,0,*5F
1514311580.36,64179,9.19,72682.3,-4.35,-34.59,-34.35,0,*55
1514311581.65,64180,9.19,72684.8,-4.35,-34.83,-34.53,0,*54
1514311582.92,64181,9.19,72694.0,-4.35,-34.77,-34.53,0,*5E
1514311584.18,64182,9.19,72694.8,-4.35,-34.53,-34.25,0,*5A
1514311585.44,64183,9.19,72688.8,-4.35,-34.07,-33.73,0,*5E
1514311586.7,64184,9.19,72684.5,-4.37,-33.73,-33.43,0,*5C
1514311587.97,64185,9.19,72684.3,-4.35,-34.19,-33.83,0,*58
1514311589.2,64186,9.19,72678.0,-4.35,-34.59,-34.41,0,*56
1514311590.4,64187,9.19,72674.5,-4.37,-34.59,-34.25,0,*57
1514311591.66,64188,9.19,72680.5,-4.35,-34.59,-34.35,0,*5B
1514311592.89,64189,9.19,72682.8,-4.37,-33.43,-33.15,0,*51
1514311594.15,64190,9.25,72686.8,-4.33,-33.61,-33.43,0,*5E
1514311595.37,64191,9.19,72680.5,-4.29,-33.95,-33.67,0,*59
1514311596.59,64192,9.19,72676.0,-4.33,-33.37,-33.03,0,*5B
1514311597.83,64193,9.19,72682.5,-4.33,-34.19,-33.83,0,*59
1514311599.07,64194,9.19,72680.8,-4.29,-33.37,-33.09,0,*5C
1514311600.31,64195,9.19,72686.5,-4.29,-33.83,-33.61,0,*5C
1514311601.55,64196,9.19,72682.3,-4.33,-34.19,-33.95,0,*5B
1514311602.77,64197,9.19,72688.0,-4.29,-34.47,-34.13,0,*53
1514311604.0,64198,9.19,72678.8,-4.29,-33.67,-33.37,0,*58
1514311605.23,64199,9.19,72676.5,-4.29,-33.95,-33.61,0,*57
1514311606.46,64200,9.25,72680.3,-4.29,-33.67,-33.37,0,*5A
1514311607.73,64201,9.19,72680.3,-4.29,-33.77,-33.43,0,*59
1514311608.96,64202,9.25,72686.0,-4.29,-33.95,-33.61,0,*56
1514311610.2,64203,9.19,72682.0,-4.29,-33.95,-33.61,0,*57
1514311611.46,64204,9.19,72682.3,-4.27,-34.31,-34.07,0,*50
1514311612.7,64205,9.19,72680.5,-4.25,-33.61,-33.37,0,*55
1514311613.94,64206,9.19,72680.5,-4.25,-33.95,-33.73,0,*5D
1514311615.2,64207,9.19,72680.8,-4.27,-33.95,-33.61,0,*5D
1514311616.46,64208,9.25,72686.5,-4.27,-34.47,-34.31,0,*58
1514311617.76,64209,9.19,72686.5,-4.27,-34.83,-34.53,0,*55
1514311619.02,64210,9.19,72678.8,-4.27,-34.53,-34.25,0,*51
1514311620.27,64211,9.19,72682.8,-4.29,-34.53,-34.13,0,*5B
1514311621.5,64212,9.25,72688.0,-4.27,-34.41,-34.07,0,*50
1514311622.77,64213,9.19,72678.3,-4.27,-33.43,-33.21,0,*57
1514311624.03,64214,9.19,72674.5,-4.27,-33.61,-33.37,0,*57
1514311625.27,64215,9.19,72676.3,-4.27,-33.37,-33.03,0,*52
1514311626.54,64216,9.25,72676.5,-4.27,-33.21,-32.79,0,*5A
1514311627.78,64217,9.19,72682.0,-4.25,-33.43,-33.03,0,*51
1514311629.07,64218,9.19,72678.3,-4.23,-33.27,-32.75,0,*5A
1514311630.36,64219,9.19,72678.3,-4.23,-33.31,-32.97,0,*50
1514311631.65,64220,9.19,72678.0,-4.23,-33.49,-33.27,0,*5F
1514311632.92,64221,9.19,72678.0,-4.23,-34.07,-33.73,0,*52
1514311634.18,64222,9.19,72672.0,-4.23,-33.89,-33.55,0,*54
1514311635.44,64223,9.19,72676.0,-4.23,-33.89,-33.37,0,*51
1514311636.66,64224,9.19,72678.5,-4.21,-33.83,-33.37,0,*5E
1514311637.93,64225,9.19,72676.8,-4.21,-33.73,-33.49,0,*59
1514311639.2,64226,9.19,72672.0,-4.23,-34.35,-34.07,0,*50
1514311640.41,64227,9.19,72678.3,-4.21,-34.07,-33.83,0,*59
1514311641.66,64228,9.19,72680.5,-4.21,-33.67,-33.49,0,*51
1514311642.9,64229,9.19,72678.8,-4.21,-33.49,-33.15,0,*55
1514311644.15,64230,9.19,72672.0,-4.21,-33.55,-33.27,0,*51
1514311645.4,64231,9.19,72672.3,-4.21,-33.37,-33.27,0,*54
1514311646.64,64232,9.19,72678.3,-4.21,-33.55,-33.27,0,*53
1514311647.88,64233,9.19,72680.5,-4.17,-33.95,-33.43,0,*59
1514311649.17,64234,9.19,72678.8,-4.19,-34.53,-34.19,0,*55
1514311650.44,64235,9.25,72682.8,-4.19,-34.35,-34.13,0,*5E
1514311651.73,64236,9.25,72680.5,-4.19,-34.53,-34.19,0,*57
1514311652.99,64237,9.25,72682.0,-4.19,-34.13,-33.77,0,*5D
1514311654.26,64238,9.19,72678.5,-4.19,-34.01,-33.67,0,*50
1514311655.53,64239,9.19,72680.3,-4.19,-33.83,-33.49,0,*50
1514311656.79,64240,9.19,72682.0,-4.19,-34.41,-34.19,0,*55
1514311658.08,64241,9.19,72682.3,-4.19,-34.01,-33.61,0,*58
1514311659.37,64242,9.19,72680.3,-4.19,-34.01,-33.77,0,*5C
1514311660.6,64243,9.19,72686.5,-4.17,-34.35,-34.25,0,*54
1514311661.87,64244,9.19,72688.0,-4.19,-34.77,-34.53,0,*5A
1514311663.14,64245,9.19,72680.0,-4.17,-33.89,-33.43,0,*55
1514311664.43,64246,9.19,72686.8,-4.19,-34.53,-34.31,0,*5A
1514311665.67,64247,9.19,72686.8,-4.19,-34.89,-34.71,0,*58
1514311666.93,64248,9.19,72690.3,-4.19,-34.41,-34.19,0,*5D
1514311668.19,64249,9.19,72686.8,-4.19,-33.95,-33.49,0,*50
1514311669.4,64250,9.19,72686.0,-4.21,-34.41,-34.25,0,*50
1514311670.64,64251,9.19,72682.5,-4.21,-34.41,-34.01,0,*57
1514311671.87,64252,9.19,72678.3,-4.21,-34.07,-33.67,0,*51
1514311673.1,64253,9.19,72678.8,-4.21,-33.89,-33.55,0,*50
1514311674.35,64254,9.19,72688.5,-4.21,-34.19,-33.67,0,*58
1514311675.62,64255,9.19,72682.0,-4.21,-34.19,-33.73,0,*5C
1514311676.89,64256,9.19,72682.0,-4.21,-33.73,-33.49,0,*5D
1514311678.15,64257,9.19,72678.8,-4.19,-33.95,-33.49,0,*5F
1514311679.42,64258,9.19,72686.0,-4.19,-34.35,-34.13,0,*55
1514311680.68,64259,9.25,72688.8,-4.21,-33.89,-33.49,0,*57
1514311681.94,64260,9.19,72676.5,-4.19,-34.31,-33.95,0,*53
1514311683.21,64261,9.19,72682.0,-4.19,-34.19,-33.67,0,*55
1514311684.5,64262,9.19,72676.5,-4.19,-33.09,-32.85,0,*5D
1514311685.75,64263,9.19,72682.3,-4.17,-33.21,-32.85,0,*58
1514311686.99,64264,9.19,72682.5,-4.17,-33.43,-33.21,0,*54
1514311688.26,64265,9.19,72676.8,-4.15,-33.21,-32.85,0,*5C
1514311689.48,64266,9.19,72684.0,-4.13,-33.37,-33.15,0,*56
1514311690.74,64267,9.19,72684.5,-4.15,-34.25,-33.89,0,*50
1514311692.03,64268,9.19,72680.8,-4.15,-34.53,-34.35,0,*5E
1514311693.3,64269,9.19,72684.0,-4.15,-34.89,-34.65,0,*5D
1514311694.53,64270,9.19,72684.8,-4.17,-35.35,-35.17,0,*55
1514311695.79,64271,9.19,72686.8,-4.17,-35.65,-35.35,0,*51
1514311697.06,64272,9.19,72680.8,-4.17,-35.65,-35.41,0,*51
1514311698.31,64273,9.19,72682.5,-4.17,-35.53,-35.35,0,*56
1514311699.55,64274,9.19,72682.3,-4.21,-35.65,-35.29,0,*5C
1514311700.83,64275,9.19,72682.3,-4.23,-35.65,-35.35,0,*52
1514311702.11,64276,9.19,72682.3,-4.23,-35.95,-35.77,0,*58
1514311703.34,64277,9.19,72674.5,-4.23,-35.47,-35.13,0,*54
1514311704.63,64278,9.19,72674.5,-4.23,-34.19,-33.89,0,*54
1514311705.87,64279,9.19,72670.0,-4.23,-34.77,-34.59,0,*57
1514311707.09,64280,9.19,72680.5,-4.21,-34.77,-34.59,0,*53